AAL9882 KEYW-KAVL

Flight info

Callsign AAL9882
Flight time 1h 47m
Altitude 38000
Route BUFTT1 JAYMC KPASA Q99 CAMJO TWINS PLYRR
Aircraft A319/M-SDE3FGHIRWY/LB1

Departure

Time 2026-04-21 19:36
Airport Key West International Airport (KEYW)

Arrival

Time 2026-04-21 21:23
Airport Asheville Regional Airport (KAVL)
Time Latitude Longitude Altitude Speed Heading
2026-04-21 19:17 24.55477 -81.75353 15 ft 0 kts 226°
2026-04-21 19:31 24.55475 -81.75357 14 ft 2 kts 238°
2026-04-21 19:31 24.55483 -81.75377 16 ft 3 kts 325°
2026-04-21 19:32 24.55504 -81.75381 17 ft 4 kts 356°
2026-04-21 19:32 24.55528 -81.75396 17 ft 5 kts 303°
2026-04-21 19:32 24.55531 -81.75462 16 ft 11 kts 269°
2026-04-21 19:32 24.55529 -81.75565 15 ft 16 kts 269°
2026-04-21 19:33 24.55529 -81.75646 15 ft 17 kts 270°
2026-04-21 19:33 24.55527 -81.75825 14 ft 19 kts 269°
2026-04-21 19:33 24.55526 -81.75978 10 ft 20 kts 270°
2026-04-21 19:33 24.55524 -81.76137 8 ft 22 kts 269°
2026-04-21 19:34 24.55522 -81.76305 8 ft 20 kts 269°
2026-04-21 19:34 24.55520 -81.76464 7 ft 19 kts 269°
2026-04-21 19:34 24.55520 -81.76574 8 ft 12 kts 269°
2026-04-21 19:34 24.55526 -81.76635 9 ft 7 kts 297°
2026-04-21 19:35 24.55577 -81.76664 9 ft 9 kts 349°
2026-04-21 19:35 24.55606 -81.76641 9 ft 0 kts 89°
2026-04-21 19:35 24.55607 -81.76570 9 ft 41 kts 89°
2026-04-21 19:36 24.55611 -81.75935 14 ft 124 kts 89°
2026-04-21 19:36 24.55625 -81.74884 653 ft 134 kts 86°
2026-04-21 19:36 24.55912 -81.73967 1510 ft 142 kts 51°
2026-04-21 19:36 24.56875 -81.73465 2151 ft 171 kts 17°
2026-04-21 19:37 24.58142 -81.73313 2630 ft 195 kts 13°
2026-04-21 19:37 24.59582 -81.73166 3049 ft 220 kts 12°
2026-04-21 19:37 24.61192 -81.73004 3551 ft 245 kts 11°
2026-04-21 19:37 24.62656 -81.72869 4144 ft 257 kts
2026-04-21 19:38 24.64464 -81.72701 5041 ft 264 kts
2026-04-21 19:38 24.66287 -81.72511 5915 ft 270 kts
2026-04-21 19:38 24.67555 -81.72371 6547 ft 273 kts
2026-04-21 19:38 24.70083 -81.72069 7712 ft 278 kts 10°
2026-04-21 19:39 24.71935 -81.71431 8581 ft 282 kts 26°
2026-04-21 19:39 24.73570 -81.70210 9433 ft 288 kts 43°
2026-04-21 19:39 24.74968 -81.68602 10225 ft 295 kts 46°
2026-04-21 19:39 24.76428 -81.66888 10544 ft 319 kts 46°
2026-04-21 19:40 24.78004 -81.65041 10831 ft 343 kts 46°
2026-04-21 19:40 24.79691 -81.63067 11115 ft 364 kts 46°
2026-04-21 19:40 24.81424 -81.61038 11701 ft 372 kts 45°
2026-04-21 19:40 24.83211 -81.58947 12402 ft 378 kts 45°
2026-04-21 19:41 24.85004 -81.56918 13106 ft 382 kts 43°
2026-04-21 19:41 24.86845 -81.54920 13810 ft 387 kts 42°
2026-04-21 19:41 24.88800 -81.52847 14472 ft 391 kts 41°
2026-04-21 19:41 24.90780 -81.50760 15106 ft 396 kts 41°
2026-04-21 19:42 24.92774 -81.48649 15737 ft 400 kts 41°
2026-04-21 19:42 24.94759 -81.46534 16385 ft 404 kts 41°
2026-04-21 19:42 24.96784 -81.44363 17028 ft 408 kts 41°
2026-04-21 19:42 24.98821 -81.42168 17691 ft 412 kts 41°
2026-04-21 19:43 25.00875 -81.39945 18369 ft 416 kts 41°
2026-04-21 19:43 25.02949 -81.37695 18971 ft 420 kts 41°
2026-04-21 19:43 25.05045 -81.35421 19540 ft 424 kts 41°
2026-04-21 19:43 25.07159 -81.33131 20080 ft 428 kts 41°
2026-04-21 19:44 25.09288 -81.30827 20590 ft 431 kts 41°
2026-04-21 19:44 25.11406 -81.28534 21092 ft 434 kts 41°
2026-04-21 19:44 25.13573 -81.26188 21588 ft 438 kts 41°
2026-04-21 19:44 25.15752 -81.23827 22076 ft 441 kts 41°
2026-04-21 19:45 25.17949 -81.21445 22554 ft 444 kts 41°
2026-04-21 19:45 25.20163 -81.19043 23010 ft 448 kts 41°
2026-04-21 19:45 25.22392 -81.16627 23463 ft 451 kts 41°
2026-04-21 19:45 25.24639 -81.14186 23904 ft 454 kts 41°
2026-04-21 19:46 25.26869 -81.11759 24289 ft 457 kts 41°
2026-04-21 19:46 25.29137 -81.09289 24691 ft 460 kts 41°
2026-04-21 19:46 25.31422 -81.06802 25094 ft 462 kts 41°
2026-04-21 19:46 25.33761 -81.04357 25476 ft 462 kts 36°
2026-04-21 19:47 25.36380 -81.02326 25863 ft 459 kts 26°
2026-04-21 19:47 25.39251 -81.00818 26246 ft 456 kts 16°
2026-04-21 19:47 25.42281 -80.99855 26619 ft 452 kts
2026-04-21 19:47 25.45387 -80.99451 27001 ft 449 kts 359°
2026-04-21 19:48 25.48522 -80.99326 27363 ft 451 kts 358°
2026-04-21 19:48 25.51625 -80.99204 27712 ft 453 kts 358°
2026-04-21 19:48 25.54782 -80.99075 28077 ft 455 kts 358°
2026-04-21 19:48 25.57944 -80.98940 28460 ft 455 kts 359°
2026-04-21 19:49 25.61105 -80.98801 28968 ft 453 kts 359°
2026-04-21 19:49 25.64248 -80.98661 29513 ft 451 kts 359°
2026-04-21 19:49 25.67380 -80.98522 30046 ft 449 kts 359°
2026-04-21 19:49 25.70495 -80.98385 30535 ft 447 kts 358°
2026-04-21 19:50 25.72552 -80.98296 30823 ft 446 kts 358°
2026-04-21 19:50 25.76699 -80.98118 31375 ft 445 kts 358°
2026-04-21 19:50 25.79793 -80.97987 31789 ft 444 kts 357°
2026-04-21 19:50 25.82839 -80.97857 32201 ft 444 kts 357°
2026-04-21 19:51 25.85917 -80.97727 32629 ft 443 kts 357°
2026-04-21 19:51 25.88998 -80.97596 33038 ft 442 kts 356°
2026-04-21 19:51 25.92067 -80.97465 33449 ft 442 kts 356°
2026-04-21 19:51 25.95137 -80.97334 33859 ft 441 kts 356°
2026-04-21 19:52 25.98202 -80.97199 34263 ft 441 kts 356°
2026-04-21 19:52 26.01264 -80.97063 34616 ft 440 kts 356°
2026-04-21 19:52 26.04317 -80.96928 34973 ft 440 kts 355°
2026-04-21 19:52 26.07378 -80.96794 35322 ft 439 kts 355°
2026-04-21 19:53 26.10430 -80.96661 35665 ft 439 kts 355°
2026-04-21 19:53 26.13439 -80.96532 35997 ft 438 kts 355°
2026-04-21 19:53 26.16483 -80.96403 36332 ft 438 kts 355°
2026-04-21 19:53 26.19521 -80.96275 36662 ft 437 kts 354°
2026-04-21 19:54 26.22558 -80.96146 36986 ft 437 kts 354°
2026-04-21 19:54 26.25539 -80.96016 37308 ft 436 kts 354°
2026-04-21 19:54 26.28572 -80.95884 37628 ft 436 kts 354°
2026-04-21 19:54 26.31599 -80.95752 37934 ft 435 kts 354°
2026-04-21 19:55 26.34623 -80.95621 38183 ft 436 kts 354°
2026-04-21 19:55 26.40551 -80.96011 38238 ft 422 kts 338°
2026-04-21 19:56 26.45821 -80.98462 38240 ft 405 kts 321°
2026-04-21 19:56 26.50521 -81.01923 38241 ft 405 kts 321°
2026-04-21 19:57 26.55232 -81.05368 38241 ft 405 kts 321°
2026-04-21 19:57 26.59950 -81.08808 38246 ft 405 kts 321°
2026-04-21 19:58 26.64631 -81.12240 38250 ft 405 kts 321°
2026-04-21 19:58 26.69337 -81.15695 38254 ft 405 kts 321°
2026-04-21 19:59 26.74051 -81.19156 38254 ft 405 kts 321°
2026-04-21 19:59 26.78753 -81.22622 38257 ft 405 kts 321°
2026-04-21 20:00 26.83463 -81.26094 38257 ft 405 kts 321°
2026-04-21 20:00 26.88142 -81.29540 38261 ft 405 kts 321°
2026-04-21 20:01 26.92851 -81.33014 38258 ft 405 kts 321°
2026-04-21 20:01 26.97578 -81.36470 38258 ft 408 kts 324°
2026-04-21 20:02 27.02858 -81.39009 38257 ft 415 kts 332°
2026-04-21 20:02 27.08223 -81.41396 38260 ft 415 kts 331°
2026-04-21 20:03 27.13585 -81.43794 38269 ft 415 kts 331°
2026-04-21 20:03 27.18916 -81.46174 38272 ft 415 kts 331°
2026-04-21 20:04 27.24277 -81.48578 38277 ft 415 kts 331°
2026-04-21 20:04 27.29633 -81.50987 38287 ft 415 kts 331°
2026-04-21 20:05 27.34997 -81.53394 38288 ft 415 kts 331°
2026-04-21 20:05 27.40331 -81.55781 38279 ft 415 kts 331°
2026-04-21 20:06 27.45693 -81.58189 38279 ft 415 kts 331°
2026-04-21 20:06 27.51063 -81.60602 38272 ft 415 kts 331°
2026-04-21 20:07 27.56428 -81.63014 38281 ft 415 kts 331°
2026-04-21 20:07 27.61796 -81.65435 38277 ft 415 kts 331°
2026-04-21 20:08 27.67122 -81.67838 38284 ft 415 kts 331°
2026-04-21 20:08 27.72353 -81.70197 38291 ft 415 kts 331°
2026-04-21 20:09 27.77590 -81.72562 38294 ft 415 kts 331°
2026-04-21 20:09 27.82957 -81.74991 38300 ft 415 kts 331°
2026-04-21 20:10 27.88312 -81.77425 38301 ft 415 kts 331°
2026-04-21 20:10 27.93673 -81.79858 38299 ft 415 kts 331°
2026-04-21 20:11 27.99000 -81.82273 38298 ft 415 kts 331°
2026-04-21 20:11 28.04282 -81.84671 38305 ft 415 kts 331°
2026-04-21 20:12 28.09643 -81.87107 38307 ft 415 kts 331°
2026-04-21 20:12 28.14096 -81.89135 38306 ft 415 kts 331°
2026-04-21 20:13 28.20267 -81.92083 38299 ft 412 kts 328°
2026-04-21 20:13 28.25369 -81.94996 38287 ft 410 kts 326°
2026-04-21 20:14 28.30356 -81.97958 38283 ft 410 kts 326°
2026-04-21 20:14 28.35444 -82.00903 38284 ft 411 kts 327°
2026-04-21 20:15 28.40560 -82.03805 38280 ft 411 kts 327°
2026-04-21 20:15 28.45679 -82.06701 38279 ft 411 kts 327°
2026-04-21 20:16 28.50799 -82.09619 38283 ft 411 kts 327°
2026-04-21 20:16 28.55877 -82.12526 38281 ft 411 kts 327°
2026-04-21 20:17 28.60987 -82.15460 38280 ft 412 kts 327°
2026-04-21 20:17 28.66102 -82.18390 38278 ft 412 kts 327°
2026-04-21 20:18 28.70356 -82.20828 38277 ft 412 kts 327°
2026-04-21 20:18 28.76341 -82.24263 38279 ft 412 kts 327°
2026-04-21 20:19 28.81454 -82.27200 38279 ft 412 kts 327°
2026-04-21 20:19 28.86582 -82.30148 38277 ft 413 kts 327°
2026-04-21 20:20 28.91717 -82.33101 38277 ft 413 kts 327°
2026-04-21 20:20 28.96834 -82.36056 38278 ft 413 kts 327°
2026-04-21 20:21 29.01970 -82.39027 38276 ft 413 kts 327°
2026-04-21 20:21 29.07102 -82.41979 38282 ft 413 kts 327°
2026-04-21 20:22 29.12238 -82.44950 38277 ft 413 kts 327°
2026-04-21 20:22 29.19932 -82.49407 38277 ft 414 kts 327°
2026-04-21 20:23 29.25154 -82.52224 38273 ft 420 kts 335°
2026-04-21 20:23 29.31054 -82.53413 38277 ft 432 kts 346°
2026-04-21 20:24 29.37028 -82.54151 38278 ft 432 kts 346°
2026-04-21 20:24 29.42005 -82.54773 38280 ft 432 kts 346°
2026-04-21 20:25 29.47983 -82.55528 38285 ft 433 kts 346°
2026-04-21 20:25 29.53977 -82.56281 38289 ft 433 kts 346°
2026-04-21 20:26 29.59959 -82.57042 38296 ft 433 kts 346°
2026-04-21 20:26 29.65946 -82.57804 38295 ft 433 kts 346°
2026-04-21 20:27 29.71889 -82.58554 38300 ft 433 kts 346°
2026-04-21 20:27 29.77872 -82.59313 38295 ft 433 kts 346°
2026-04-21 20:28 29.83854 -82.60072 38297 ft 432 kts 346°
2026-04-21 20:28 29.89837 -82.60835 38295 ft 432 kts 346°
2026-04-21 20:29 29.95811 -82.61593 38294 ft 432 kts 346°
2026-04-21 20:29 30.01748 -82.62349 38292 ft 432 kts 346°
2026-04-21 20:30 30.07720 -82.63114 38287 ft 432 kts 346°
2026-04-21 20:30 30.13698 -82.63873 38287 ft 432 kts 346°
2026-04-21 20:31 30.19664 -82.64628 38287 ft 432 kts 346°
2026-04-21 20:31 30.25598 -82.65388 38286 ft 431 kts 346°
2026-04-21 20:32 30.31563 -82.66163 38300 ft 431 kts 346°
2026-04-21 20:32 30.37526 -82.66928 38316 ft 431 kts 346°
2026-04-21 20:33 30.43488 -82.67692 38335 ft 431 kts 346°
2026-04-21 20:33 30.49415 -82.68434 38357 ft 433 kts 349°
2026-04-21 20:34 30.55519 -82.67888 38372 ft 445 kts
2026-04-21 20:34 30.61647 -82.66894 38375 ft 444 kts
2026-04-21 20:35 30.67768 -82.65918 38376 ft 444 kts
2026-04-21 20:35 30.73854 -82.64941 38365 ft 444 kts
2026-04-21 20:36 30.79972 -82.63952 38357 ft 444 kts
2026-04-21 20:36 30.86095 -82.62958 38337 ft 444 kts
2026-04-21 20:37 30.92208 -82.61964 38333 ft 444 kts
2026-04-21 20:37 30.98318 -82.60973 38338 ft 443 kts
2026-04-21 20:38 31.04374 -82.59986 38326 ft 443 kts
2026-04-21 20:38 31.10473 -82.58985 38328 ft 443 kts
2026-04-21 20:39 31.16572 -82.57992 38312 ft 442 kts
2026-04-21 20:39 31.22664 -82.57005 38308 ft 442 kts
2026-04-21 20:40 31.28794 -82.56007 38311 ft 442 kts
2026-04-21 20:40 31.34880 -82.55007 38310 ft 442 kts
2026-04-21 20:41 31.40966 -82.54002 38318 ft 441 kts
2026-04-21 20:41 31.47045 -82.53011 38313 ft 441 kts
2026-04-21 20:42 31.53123 -82.52019 38315 ft 441 kts
2026-04-21 20:42 31.59191 -82.51011 38313 ft 441 kts
2026-04-21 20:43 31.65280 -82.50006 38314 ft 441 kts
2026-04-21 20:43 31.71310 -82.49010 38314 ft 441 kts
2026-04-21 20:44 31.77379 -82.48007 38326 ft 440 kts
2026-04-21 20:44 31.83447 -82.47004 38328 ft 440 kts
2026-04-21 20:45 31.89513 -82.46003 38328 ft 440 kts
2026-04-21 20:45 31.95568 -82.45011 38326 ft 440 kts
2026-04-21 20:46 32.01638 -82.44004 38329 ft 440 kts
2026-04-21 20:46 32.07683 -82.42990 38328 ft 439 kts
2026-04-21 20:47 32.13744 -82.41978 38329 ft 439 kts
2026-04-21 20:47 32.19796 -82.40969 38330 ft 439 kts
2026-04-21 20:48 32.25832 -82.39955 38329 ft 439 kts
2026-04-21 20:48 32.31882 -82.38942 38332 ft 438 kts
2026-04-21 20:49 32.37882 -82.37939 38331 ft 438 kts
2026-04-21 20:49 32.43951 -82.36924 38334 ft 438 kts
2026-04-21 20:50 32.49978 -82.35916 38336 ft 438 kts
2026-04-21 20:50 32.56010 -82.34904 38334 ft 437 kts
2026-04-21 20:51 32.62032 -82.33887 38339 ft 437 kts
2026-04-21 20:51 32.68055 -82.32876 38341 ft 437 kts
2026-04-21 20:52 32.74077 -82.31869 38342 ft 437 kts 360°
2026-04-21 20:52 32.79997 -82.31977 38346 ft 418 kts 342°
2026-04-21 20:53 32.85570 -82.33719 38343 ft 413 kts 338°
2026-04-21 20:53 32.91118 -82.35515 38337 ft 414 kts 338°
2026-04-21 20:54 32.96717 -82.37320 38338 ft 414 kts 338°
2026-04-21 20:54 33.02270 -82.39114 38337 ft 413 kts 338°
2026-04-21 20:55 33.07811 -82.40914 38341 ft 413 kts 338°
2026-04-21 20:55 33.13359 -82.42721 38330 ft 413 kts 338°
2026-04-21 20:56 33.18897 -82.44522 38335 ft 413 kts 338°
2026-04-21 20:56 33.24405 -82.46317 38347 ft 413 kts 338°
2026-04-21 20:57 33.29946 -82.48125 38357 ft 413 kts 338°
2026-04-21 20:57 33.35483 -82.49939 38371 ft 413 kts 338°
2026-04-21 20:58 33.41021 -82.51755 38376 ft 412 kts 338°
2026-04-21 20:58 33.46554 -82.53568 38377 ft 412 kts 338°
2026-04-21 20:59 33.52093 -82.55383 38386 ft 412 kts 338°
2026-04-21 20:59 33.57619 -82.57196 38381 ft 412 kts 338°
2026-04-21 21:00 33.60352 -82.58094 38182 ft 413 kts 338°
2026-04-21 21:00 33.63124 -82.59006 37908 ft 412 kts 338°
2026-04-21 21:00 33.65866 -82.59909 37639 ft 412 kts 338°
2026-04-21 21:00 33.68621 -82.60817 37373 ft 412 kts 338°
2026-04-21 21:01 33.71391 -82.61729 37086 ft 412 kts 339°
2026-04-21 21:01 33.74160 -82.62638 36826 ft 412 kts 339°
2026-04-21 21:01 33.76920 -82.63547 36567 ft 412 kts 339°
2026-04-21 21:01 33.79718 -82.64359 36319 ft 417 kts 344°
2026-04-21 21:02 33.82626 -82.64719 36065 ft 424 kts 352°
2026-04-21 21:02 33.85595 -82.64610 35825 ft 429 kts 356°
2026-04-21 21:02 33.88577 -82.64412 35580 ft 430 kts 356°
2026-04-21 21:02 33.91564 -82.64217 35342 ft 430 kts 356°
2026-04-21 21:03 33.94547 -82.64024 35110 ft 431 kts 356°
2026-04-21 21:03 33.97543 -82.63830 34342 ft 435 kts 356°
2026-04-21 21:03 34.00595 -82.63637 33324 ft 440 kts 356°
2026-04-21 21:03 34.03661 -82.63443 32383 ft 444 kts 357°
2026-04-21 21:04 34.06724 -82.63244 31837 ft 438 kts 357°
2026-04-21 21:04 34.09762 -82.63043 31188 ft 435 kts 357°
2026-04-21 21:04 34.12781 -82.62841 30539 ft 433 kts 358°
2026-04-21 21:04 34.15783 -82.62642 29834 ft 431 kts 358°
2026-04-21 21:05 34.18757 -82.62445 29231 ft 426 kts 358°
2026-04-21 21:05 34.21664 -82.62253 28618 ft 422 kts 358°
2026-04-21 21:05 34.24584 -82.62063 28016 ft 418 kts 358°
2026-04-21 21:05 34.27477 -82.61876 27408 ft 415 kts 358°
2026-04-21 21:06 34.30351 -82.61690 26813 ft 412 kts 359°
2026-04-21 21:06 34.33203 -82.61502 26222 ft 408 kts 359°
2026-04-21 21:06 34.36028 -82.61317 25652 ft 405 kts 359°
2026-04-21 21:06 34.38825 -82.61136 25102 ft 401 kts 359°
2026-04-21 21:07 34.41604 -82.60956 24562 ft 398 kts 359°
2026-04-21 21:07 34.44359 -82.60777 24047 ft 395 kts 359°
2026-04-21 21:07 34.47093 -82.60600 23484 ft 392 kts 359°
2026-04-21 21:07 34.49797 -82.60423 22997 ft 388 kts 359°
2026-04-21 21:08 34.52482 -82.60246 22515 ft 384 kts 359°
2026-04-21 21:08 34.55143 -82.60071 22036 ft 382 kts 359°
2026-04-21 21:08 34.57787 -82.59895 21553 ft 379 kts 359°
2026-04-21 21:08 34.60413 -82.59721 21064 ft 378 kts 359°
2026-04-21 21:09 34.63034 -82.59545 20576 ft 376 kts 359°
2026-04-21 21:09 34.65641 -82.59372 20078 ft 374 kts 359°
2026-04-21 21:09 34.68198 -82.59205 19580 ft 373 kts 359°
2026-04-21 21:09 34.70789 -82.59038 19071 ft 373 kts 359°
2026-04-21 21:10 34.73373 -82.58870 18519 ft 372 kts 359°
2026-04-21 21:10 34.75989 -82.58700 17791 ft 376 kts 360°
2026-04-21 21:10 34.78580 -82.58530 17222 ft 374 kts 360°
2026-04-21 21:10 34.81163 -82.58362 16741 ft 371 kts 360°
2026-04-21 21:11 34.83739 -82.58192 16247 ft 368 kts 360°
2026-04-21 21:11 34.86297 -82.58021 15735 ft 366 kts 360°
2026-04-21 21:11 34.88821 -82.57851 15171 ft 363 kts 360°
2026-04-21 21:11 34.91325 -82.57681 14683 ft 357 kts 360°
2026-04-21 21:12 34.93793 -82.57513 14193 ft 353 kts 360°
2026-04-21 21:12 34.96231 -82.57352 13666 ft 348 kts 360°
2026-04-21 21:12 34.98635 -82.57199 13175 ft 345 kts 360°
2026-04-21 21:12 35.00998 -82.57050 12694 ft 343 kts 360°
2026-04-21 21:13 35.03380 -82.56894 12198 ft 341 kts
2026-04-21 21:13 35.05740 -82.56736 11700 ft 339 kts
2026-04-21 21:13 35.08089 -82.56578 11201 ft 338 kts
2026-04-21 21:13 35.10425 -82.56419 10690 ft 334 kts
2026-04-21 21:14 35.12720 -82.56263 10356 ft 323 kts
2026-04-21 21:14 35.14905 -82.56113 10237 ft 306 kts
2026-04-21 21:14 35.16979 -82.55974 10051 ft 293 kts 360°
2026-04-21 21:14 35.18992 -82.55845 9735 ft 285 kts 360°
2026-04-21 21:15 35.20969 -82.55718 9603 ft 285 kts 360°
2026-04-21 21:15 35.22935 -82.55653 9334 ft 281 kts 353°
2026-04-21 21:15 35.24846 -82.55921 9051 ft 278 kts 349°
2026-04-21 21:15 35.26758 -82.56250 8792 ft 277 kts 349°
2026-04-21 21:16 35.28666 -82.56587 8538 ft 277 kts 349°
2026-04-21 21:16 35.30565 -82.56927 8287 ft 276 kts 349°
2026-04-21 21:16 35.32462 -82.57271 8032 ft 274 kts 349°
2026-04-21 21:16 35.34333 -82.57609 7781 ft 268 kts 349°
2026-04-21 21:17 35.36117 -82.58094 7524 ft 259 kts 341°
2026-04-21 21:17 35.37803 -82.58731 7299 ft 255 kts 340°
2026-04-21 21:17 35.39470 -82.59380 7052 ft 247 kts 340°
2026-04-21 21:17 35.41080 -82.60005 6817 ft 240 kts 340°
2026-04-21 21:18 35.42657 -82.60617 6555 ft 234 kts 340°
2026-04-21 21:18 35.44185 -82.61202 6305 ft 227 kts 340°
2026-04-21 21:18 35.45675 -82.61775 6096 ft 221 kts 340°
2026-04-21 21:18 35.47128 -82.62345 5921 ft 218 kts 340°
2026-04-21 21:19 35.48543 -82.62899 5746 ft 209 kts 340°
2026-04-21 21:19 35.49886 -82.63424 5508 ft 196 kts 340°
2026-04-21 21:19 35.51179 -82.63683 5244 ft 185 kts
2026-04-21 21:19 35.52297 -82.63072 5012 ft 178 kts 43°
2026-04-21 21:20 35.52859 -82.61755 4584 ft 178 kts 81°
2026-04-21 21:20 35.52804 -82.60242 4215 ft 179 kts 108°
2026-04-21 21:20 35.52195 -82.58987 3834 ft 177 kts 136°
2026-04-21 21:20 35.51283 -82.58122 3582 ft 157 kts 147°
2026-04-21 21:21 35.50401 -82.57472 3402 ft 141 kts 153°
2026-04-21 21:21 35.49553 -82.56968 3201 ft 133 kts 159°
2026-04-21 21:21 35.48689 -82.56539 3002 ft 133 kts 159°
2026-04-21 21:21 35.47837 -82.56121 2873 ft 133 kts 159°
2026-04-21 21:22 35.46971 -82.55730 2682 ft 133 kts 161°
2026-04-21 21:22 35.46108 -82.55336 2495 ft 133 kts 160°
2026-04-21 21:22 35.45253 -82.54941 2324 ft 132 kts 161°
2026-04-21 21:22 35.44402 -82.54563 2164 ft 124 kts 163°
2026-04-21 21:23 35.43724 -82.54259 2154 ft 80 kts 160°
2026-04-21 21:23 35.43364 -82.54097 2151 ft 34 kts 160°
2026-04-21 21:23 35.43168 -82.54007 2154 ft 22 kts 157°
2026-04-21 21:23 35.43075 -82.53890 2155 ft 14 kts 108°
2026-04-21 21:24 35.43137 -82.53849 2156 ft 13 kts 339°
2026-04-21 21:24 35.43213 -82.53883 2157 ft 12 kts 340°
2026-04-21 21:24 35.43299 -82.53922 2153 ft 15 kts 340°
2026-04-21 21:24 35.43403 -82.53968 2150 ft 17 kts 340°
2026-04-21 21:25 35.43473 -82.54000 2152 ft 9 kts 340°
2026-04-21 21:25 35.43518 -82.53999 2155 ft 6 kts 44°
2026-04-21 21:25 35.43543 -82.53964 2155 ft 5 kts 33°
2026-04-21 21:25 35.43573 -82.53948 2156 ft 4 kts 22°
2026-04-21 21:26 35.43600 -82.53935 2156 ft 4 kts 21°
2026-04-21 21:26 35.43619 -82.53945 2155 ft 3 kts 302°
2026-04-21 21:26 35.43611 -82.53968 2152 ft 1 kts 210°
2026-04-21 21:26 35.43605 -82.53963 2152 ft 0 kts 161°